Location: Hamburg
(53.5500°N, 10.0000°E)
Time: 20:23:35
(UTC+01:00)

Daily predictions for brighter satellites

Satellite Brightness Start Highest point End
(mag) Time Altitude Azimuth Time Altitude Azimuth Time Altitude Azimuth
NOSS 3-1 (C) 4.4 18:12:19 10° NW 18:18:53 44° NNE 18:26:19 10° E
NOSS 2-2 (D) 3.8 18:17:04 10° SSW 18:21:12 57° SE 18:26:13 10° NE
Resurs 01 Rocket 2.5 18:19:10 10° ESE 18:22:58 29° ENE 18:26:47 10° N
Meteor 1-18 Rocket 4.3 18:18:10 10° NNW 18:23:46 85° WSW 18:29:22 10° S
COSMO-SKYMED 1 2.7 18:19:36 10° NNE 18:23:53 55° E 18:28:09 10° S
Spot 2 Rocket 4.2 18:20:34 10° SE 18:25:05 34° ENE 18:29:39 10° N
ALOS 2.7 18:22:47 10° SE 18:27:07 39° ENE 18:31:30 10° N
Cosmos 2322 Rocket 3.2 18:23:38 10° NW 18:29:05 52° WSW 18:34:31 10° S
FengYun 1-2 T 4.4 18:29:17 10° SE 18:34:32 49° ENE 18:39:52 10° N
Meteor 1-19 Rocket 4.4 18:29:37 10° N 18:35:10 53° ENE 18:40:46 10° SSE
Cosmos 1745 Rocket 4.0 18:29:39 10° S 18:35:58 82° E 18:42:15 10° NNE
NOSS 2-2 (C) 3.7 18:34:12 10° SW 18:38:25 75° SE 18:43:37 10° NE
Meteor 1-20 Rocket 4.3 18:32:58 10° S 18:38:45 65° E 18:44:32 10° NNE
Okean 2 Rocket 3.2 18:34:41 10° S 18:39:08 86° W 18:43:36 10° N
Cosmos 2285 Rocket 4.5 18:34:01 10° NNW 18:40:08 42° NE 18:46:12 10° ESE
Resurs 1-3 4.2 18:37:27 10° SE 18:41:27 35° ENE 18:45:27 10° N
Envisat 4.4 18:38:05 10° E 18:41:42 20° NE 18:45:19 10° N
Cosmos 1386 Rocket 4.4 18:36:13 10° S 18:42:15 72° E 18:48:16 10° NNE
Helios 1A 4.0 18:39:13 10° ESE 18:42:38 25° ENE 18:46:04 10° N
Cosmos 1340 2.6 18:40:08 10° N 18:43:57 71° ENE 18:47:44 10° SSE
Cosmos 1833 Rocket 4.0 18:39:41 10° WSW 18:44:57 39° NW 18:50:15 10° NNE
Cosmos 2322 3.7 18:39:11 10° NNW 18:44:58 87° ENE 18:50:42 10° SSE
FENGYUN 3A 3.8 18:40:10 10° SE 18:45:27 58° ENE 18:50:47 10° N
Helios 1B rocket 4.2 18:47:26 10° ENE 18:52:54 - SE 18:48:51 13° ENE
Meteor 1-13 Rocket 4.1 18:46:23 10° N 18:51:57 75° ENE 18:57:34 10° SSE
SL-19 R/B 4.5 18:47:07 10° SE 18:52:49 64° ENE 18:58:58 10° NNW
Okean 2 4.5 18:50:29 10° N 18:53:57 25° ENE 18:57:08 11° ESE
Meteor 1-28 Rocket 3.3 18:53:12 10° NNE 18:57:02 86° WNW 19:00:51 10° SSW
Cosmos 1238 Rocket 2.0 18:54:50 10° N 18:57:59 72° E 19:00:55 10° SSE
Cosmos 2151 Rocket 3.6 18:53:43 10° S 18:58:13 75° E 19:02:46 10° NNE
FREGAT/IRIS 2.8 18:55:15 10° S 18:58:20 79° WSW 19:01:28 10° NNW
NOAA 12 4.5 18:53:01 10° S 18:58:20 71° WSW 19:03:42 10° NNW
Meteor 1-23 Rocket 4.5 18:53:34 10° N 18:59:16 50° ENE 19:04:52 10° SE
COSMOS 2428 2.7 18:54:16 10° NNW 18:59:58 68° NE 19:05:39 10° SE
Okean 1 Rocket 3.7 18:55:58 10° SSE 19:00:02 34° E 19:04:06 10° NNE
Geosat 4.5 18:55:17 10° NNE 19:00:17 63° NW 19:05:15 10° SW
Cosmos 2237 4.2 18:54:31 10° NNW 19:00:18 81° ENE 19:06:03 10° SE
Cosmos 2333 4.3 18:55:56 10° NNW 19:01:37 63° NE 19:07:20 10° SE
Meteor 2-4 Rocket 3.7 18:56:54 10° N 19:02:30 61° ENE 19:07:54 10° SSE
Genesis I 3.4 18:59:31 10° NW 19:03:28 74° SW 19:07:23 10° SE
SJ-6B 3.0 19:00:28 10° S 19:04:27 74° WSW 19:08:22 10° NNW
Cosmos 2237 Rocket 2.9 18:59:23 10° NNW 19:04:38 36° NE 19:08:26 17° E
NOSS 0 Rocket 4.2 19:01:17 10° NNW 19:07:16 49° NE 19:12:12 15° ESE
HJ-1C 3.3 19:07:18 10° SSE 19:10:41 87° ENE 19:14:05 10° NNW
SKYMED 2 4.3 19:07:43 10° N 19:11:59 56° WNW 19:16:15 10° SSW
SAR-Lupe-1 4.5 19:09:04 12° SE 19:12:06 41° ENE 19:15:30 10° N
CZ-4B DEB 3.7 19:13:29 25° ENE 19:13:45 26° ENE 19:16:25 10° N
Cosmos 1025 Rocket 3.2 19:10:04 10° N 19:14:22 51° ENE 19:18:39 10° SSE
SAR-Lupe-4 3.7 19:13:24 10° SE 19:16:53 52° ENE 19:20:24 10° N
Okean 1-7 Rocket 3.5 19:13:49 10° N 19:18:24 71° ENE 19:22:53 10° SSE
USA 186 2.2 19:18:59 32° E 19:19:25 34° ENE 19:22:05 10° N
Cosmos 2360 Rocket 3.1 19:14:37 10° NW 19:20:06 52° WSW 19:25:34 10° S
ATLAS CENTAUR R/B 3.3 19:18:29 10° WNW 19:22:00 24° NNW 19:25:21 10° NE
Cosmos 2219 Rocket 2.2 19:16:39 10° NNW 19:22:12 60° NE 19:26:30 17° SE
Cosmos 405 Rocket 3.4 19:18:30 10° N 19:22:18 35° ENE 19:23:55 25° ESE
Cosmos 1741 Rocket 4.5 19:20:50 10° S 19:25:33 36° ESE 19:30:19 10° NE
Cosmos 1939 Rocket 3.8 19:25:22 26° ENE 19:25:49 27° ENE 19:29:12 10° N
CZ-2D R/B 3.1 19:23:06 10° SSE 19:26:54 68° ENE 19:30:43 10° N
Cosmos 1818 3.5 19:21:54 10° SSW 19:27:19 70° SE 19:32:22 12° NE
Cosmos 2219 3.9 19:22:33 10° SSE 19:27:32 32° ESE 19:32:33 10° NE
Cosmos 407 Rocket 3.8 19:24:45 10° SSW 19:30:01 73° WNW 19:35:24 10° NNE
Cosmos 1536 2.9 19:27:27 10° S 19:31:20 52° E 19:35:14 10° NNE
Cosmos 1763 Rocket 4.2 19:27:46 10° NNW 19:32:27 35° NE 19:34:11 28° E
H-2A R/B 2.7 19:28:58 10° SSE 19:32:42 82° WSW 19:36:30 10° NNW
Cosmos 1570 Rocket 4.3 19:29:01 10° NNW 19:34:14 70° WSW 19:39:26 10° SSE
Cosmos 676 Rocket 4.0 19:29:02 10° SSW 19:34:15 89° WNW 19:39:33 10° NNE
Meteor 1-11 Rocket 3.7 19:29:10 10° S 19:34:59 76° E 19:40:57 10° NNE
SL-16 R/B 3.1 19:32:46 10° NNW 19:37:49 31° NE 19:39:44 26° ENE
USA 229 DEB 3.9 19:31:07 10° NW 19:38:13 78° SW 19:44:32 14° SE
USA 229 3.9 19:31:13 10° NW 19:38:19 78° SW 19:44:36 14° SE
Cosmos 1633 2.9 19:37:54 10° SSW 19:41:35 66° WNW 19:45:16 10° N
Cosmos 1140 Rocket 3.3 19:45:01 10° SSW 19:50:09 81° ESE 19:55:22 10° NNE
NOSS 3-1 (A) 4.0 19:43:39 10° NW 19:50:47 67° NE 19:55:05 29° ESE
Cosmos 1833 4.1 19:48:36 10° SSW 19:54:18 89° ESE 19:59:59 10° NNE
USA 215 3.4 19:50:28 24° ENE 19:54:35 69° N 20:01:04 10° W
Cosmos 2333 Rocket 2.1 19:49:08 10° NNW 19:54:55 80° ENE 19:58:02 29° SE
Cosmos 371 Rocket 4.0 19:50:49 10° NNW 19:55:18 34° NE 19:55:42 34° ENE
Cosmos 1441 Rocket 4.1 19:52:01 10° N 19:54:57 34° NE 19:54:57 34° NE
Cosmos 468 Rocket 3.9 19:50:42 10° NNW 19:55:57 79° ENE 19:58:39 30° SE
ATLAS 2AS CENTAUR R/B 3.7 19:48:32 10° WNW 19:56:20 46° NNE 20:00:32 26° ENE
Cosmos 614 Rocket 3.8 19:53:26 10° SSW 19:58:29 75° ESE 20:03:34 10° NNE
Cosmos 2082 Rocket 4.5 19:54:48 10° WNW 19:58:54 20° NNW 20:03:02 10° NNE
Resurs 01 Rocket 2.8 19:55:07 10° S 19:59:19 43° W 20:03:33 10° NNW
Spot 1 4.4 19:58:21 11° S 20:02:13 62° WSW 20:06:24 10° NNW
Cosmos 2074 Rocket 3.9 19:56:41 10° S 20:02:56 80° E 20:09:16 10° NNE
Cosmos 1980 3.6 19:57:39 10° NNW 20:03:20 76° NE 20:05:37 38° SE
Cosmos 1300 Rocket 4.4 19:59:02 10° SSW 20:03:22 52° WNW 20:07:45 10° N
ALOS 4.0 20:00:24 10° SSW 20:04:39 34° W 20:08:55 10° NNW
Cosmos 2184 Rocket 3.9 19:59:20 10° S 20:05:38 80° E 20:11:55 10° NNE
USA 32 4.2 20:01:13 10° N 20:06:19 49° ENE 20:06:54 47° E
SJ-11-01 4.2 20:07:18 41° SSE 20:08:58 77° ENE 20:13:45 10° NNW
NOSS 3-1 (C) 3.9 20:03:22 10° NW 20:10:38 87° NE 20:14:38 34° SE
Cosmos 1814 Rocket 3.8 20:08:00 10° NNW 20:13:14 83° ENE 20:14:44 47° SE
Cosmos 1850 Rocket 3.9 20:11:06 10° SSW 20:16:26 86° ESE 20:21:50 10° NNE
Helios 1A 3.9 20:14:20 12° S 20:18:01 47° W 20:22:04 10° NNW
Terra 4.0 20:20:00 13° NNE 20:20:00 13° NNE 20:21:11 10° NNE
Nadezhda 3 Rocket 3.8 20:12:20 10° N 20:18:32 82° E 20:22:13 26° SSE
Envisat 2.9 20:17:55 35° SSE 20:20:07 88° WSW 20:25:15 10° NNW
Cosmos 1437 4.2 20:20:15 10° NNW 20:22:13 33° NNW 20:22:13 33° NNW
Meteor 1-5 Rocket 4.3 20:18:08 10° SSW 20:24:07 87° WNW 20:30:01 10° NNE
Helios 1B rocket 2.4 20:21:10 10° NNE 20:29:15 12° SSW 20:29:32 10° SSW
ERS-1 Rocket 2.8 20:25:25 66° ESE 20:25:55 72° ENE 20:30:58 10° NNW
Cosmos 2341 Rocket 4.1 20:27:46 52° ESE 20:28:16 53° E 20:34:28 10° NNE
MetOp-A 4.3 20:29:07 54° ENE 20:29:07 54° ENE 20:34:13 10° N
Cosmos 2154 Rocket 3.9 20:28:15 10° S 20:34:34 73° E 20:40:55 10° NNE
H-2A R/B 4.1 20:37:27 17° NNE 20:37:27 17° NNE 20:38:46 10° N
Cosmos 1892 Rocket 4.3 20:31:51 10° NNW 20:36:05 50° W 20:37:33 35° SSW
GEOS 3 Rocket 3.5 20:36:20 58° NE 20:37:25 87° SE 20:42:42 10° SW
SPOT 5 3.5 20:40:59 45° NNE 20:40:59 45° NNE 20:44:55 10° N
H-2A R/B 3.3 20:41:52 30° NNE 20:41:52 30° NNE 20:45:26 10° N
Meteor 2-13 Rocket 4.4 20:36:39 10° SSW 20:42:43 84° W 20:48:52 10° N
Cosmos 1727 Rocket 4.5 20:37:08 10° N 20:42:29 43° NE 20:42:29 43° NE
Meteor 1-21 4.5 20:38:59 10° N 20:43:59 53° NE 20:43:59 53° NE
Cosmos 1066 Rocket 4.2 20:42:39 10° NNW 20:48:25 83° W 20:49:12 67° S
Cosmos 2237 Rocket 2.5 20:43:26 10° NW 20:49:05 62° WSW 20:50:18 50° SSW
Cosmos 1939 Rocket 4.3 21:01:17 35° WNW 21:01:17 35° WNW 21:04:24 10° NNW
Cosmos 841 Rocket 3.6 20:55:47 10° NNW 21:00:33 68° WNW 21:00:33 68° WNW
ATLAS CENTAUR R/B 3.7 20:59:29 10° NW 21:01:52 17° N 21:01:52 17° N
ARGOS 3.6 21:04:57 53° N 21:04:57 53° N 21:09:10 10° NNW
Cosmos 2219 Rocket 3.7 21:01:01 10° NW 21:05:53 31° WSW 21:08:16 22° SSW
Cosmos 962 Rocket 4.4 21:10:25 84° WSW 21:10:32 85° W 21:16:43 10° N
Cosmos 2219 3.6 21:05:43 10° SW 21:11:25 61° NW 21:14:49 25° NNE
Cosmos 1763 Rocket 4.2 21:09:33 10° NW 21:14:15 48° W 21:14:15 48° W
SL-16 R/B 2.6 21:16:47 10° NW 21:21:38 62° WNW 21:21:38 62° WNW
USA 215 3.3 21:37:49 72° NNW 21:37:49 72° NNW 21:43:57 10° WNW
Cosmos 2333 Rocket 4.1 21:34:11 10° NW 21:38:36 23° WSW 21:40:05 21° SW
NOSS 3-4 (C) 4.5 21:33:54 10° NW 21:40:10 40° NNE 21:40:23 40° NNE
NOSS 3-1 (A) 4.5 21:34:42 10° NW 21:41:47 50° SW 21:42:34 48° SW
ATLAS 2AS CENTAUR R/B 3.0 21:40:09 10° NW 21:47:58 80° N 21:47:58 80° N
Terra 4.2 21:58:53 19° N 21:58:53 19° N 22:00:12 10° NNW
H-2A R/B 4.0 22:22:30 28° NW 22:22:30 28° NW 22:25:09 10° NNW
